When you browse on this site, cookies collect data to enhance your experience and personalize the content and advertising you see.
Visit our Privacy Policy to learn more. By continuing to use the site, you agree to this use of cookies and data.
  • En España
  • Lista de países
  • Para 7 días
  • Temperatura del agua
  • Mapa Satelital
  • El tiempo en el mapa
  • Informadores
  • user-avatar
    Iniciar sesión

    Tiempo cada hora Corozal

    Hoy, 16 Enero, Miércoles

    Tiempo Temperatura Precipitaciones Viento Presión Humedad
    00:00 +23°C° 0 mm 2 mps 764 mmHg 96%
    01:00 +21°C° 0 mm 2 mps 763 mmHg 95%
    02:00 +21°C° 0 mm 2 mps 763 mmHg 95%
    03:00 +21°C° 0 mm 2 mps 763 mmHg 94%
    04:00 +21°C° 0 mm 2 mps 763 mmHg 94%
    05:00 +21°C° 0 mm 2 mps 764 mmHg 94%
    06:00 +20°C° 0 mm 2 mps 764 mmHg 94%
    07:00 +21°C° 0 mm 2 mps 764 mmHg 91%
    08:00 +23°C° 0 mm 2 mps 765 mmHg 87%
    09:00 +23°C° 0 mm 2 mps 765 mmHg 84%
    10:00 +25°C° 0 mm 2 mps 765 mmHg 75%
    11:00 +27°C° 0 mm 2 mps 765 mmHg 67%
    12:00 +29°C° 0 mm 2 mps 764 mmHg 58%
    13:00 +29°C° 0 mm 2 mps 764 mmHg 59%
    14:00 +29°C° 0 mm 3 mps 763 mmHg 59%
    15:00 +29°C° 0 mm 3 mps 763 mmHg 59%
    16:00 +28°C° 0 mm 2 mps 763 mmHg 66%
    17:00 +26°C° 0 mm 2 mps 763 mmHg 72%
    18:00 +24°C° 0 mm 2 mps 763 mmHg 78%
    19:00 +24°C° 0 mm 2 mps 763 mmHg 81%
    20:00 +23°C° 0 mm 2 mps 764 mmHg 83%
    21:00 +21°C° 0 mm 2 mps 764 mmHg 86%
    22:00 +21°C° 0 mm 2 mps 764 mmHg 87%
    23:00 +21°C° 0 mm 2 mps 764 mmHg 88%

    Mañana, 17 Enero, Jueves

    Tiempo Temperatura Precipitaciones Viento Presión Humedad
    00:00 +21°C° 0 mm 2 mps 764 mmHg 90%
    01:00 +21°C° 0 mm 1 mps 764 mmHg 91%
    02:00 +21°C° 0 mm 1 mps 764 mmHg 92%
    03:00 +21°C° 0 mm 1 mps 763 mmHg 94%
    04:00 +19°C° 0 mm 2 mps 764 mmHg 95%
    05:00 +19°C° 0 mm 2 mps 764 mmHg 96%
    06:00 +19°C° 0 mm 2 mps 764 mmHg 97%
    07:00 +20°C° 0 mm 2 mps 765 mmHg 90%
    08:00 +23°C° 0 mm 2 mps 765 mmHg 84%
    09:00 +24°C° 0 mm 2 mps 765 mmHg 78%
    10:00 +26°C° 0 mm 2 mps 765 mmHg 71%
    11:00 +27°C° 0 mm 2 mps 765 mmHg 64%
    12:00 +29°C° 0 mm 2 mps 764 mmHg 58%
    13:00 +29°C° 0 mm 2 mps 764 mmHg 59%
    14:00 +29°C° 0 mm 2 mps 763 mmHg 60%
    15:00 +29°C° 0 mm 2 mps 762 mmHg 62%
    16:00 +27°C° 0 mm 2 mps 762 mmHg 67%
    17:00 +26°C° 0 mm 2 mps 762 mmHg 73%
    18:00 +24°C° 0 mm 2 mps 763 mmHg 78%
    19:00 +24°C° 0 mm 2 mps 763 mmHg 81%
    20:00 +23°C° 0 mm 2 mps 763 mmHg 84%
    21:00 +21°C° 0 mm 2 mps 764 mmHg 86%
    22:00 +22°C° 0 mm 1 mps 764 mmHg 88%
    23:00 +21°C° 0 mm 1 mps 763 mmHg 89%

    Pasado mañana, 18 Enero, Viernes

    Tiempo Temperatura Precipitaciones Viento Presión Humedad
    00:00 +21°C° 0 mm 1 mps 763 mmHg 91%
    01:00 +21°C° 0 mm 1 mps 763 mmHg 91%
    02:00 +21°C° 0 mm 1 mps 763 mmHg 92%
    03:00 +20°C° 0 mm 1 mps 763 mmHg 93%
    04:00 +19°C° 0 mm 2 mps 763 mmHg 93%
    05:00 +19°C° 0 mm 2 mps 763 mmHg 93%
    06:00 +19°C° 0 mm 2 mps 763 mmHg 93%
    07:00 +20°C° 0 mm 2 mps 763 mmHg 88%
    08:00 +23°C° 0 mm 2 mps 764 mmHg 83%
    09:00 +24°C° 0 mm 2 mps 764 mmHg 77%
    10:00 +26°C° 0 mm 2 mps 764 mmHg 71%
    11:00 +28°C° 0 mm 2 mps 763 mmHg 64%
    12:00 +30°C° 0 mm 2 mps 763 mmHg 58%
    13:00 +30°C° 0 mm 2 mps 762 mmHg 57%
    14:00 +30°C° 0 mm 2 mps 761 mmHg 57%
    15:00 +30°C° 0 mm 2 mps 760 mmHg 57%
    16:00 +28°C° 0 mm 2 mps 760 mmHg 65%
    17:00 +27°C° 0 mm 2 mps 760 mmHg 72%
    18:00 +25°C° 0 mm 1 mps 761 mmHg 80%
    19:00 +24°C° 0 mm 1 mps 761 mmHg 84%
    20:00 +24°C° 0 mm 1 mps 761 mmHg 88%
    21:00 +23°C° 0 mm 1 mps 762 mmHg 92%
    22:00 +23°C° 0 mm 1 mps 761 mmHg 93%
    23:00 +22°C° 0 mm 1 mps 761 mmHg 94%

    19 Enero, Sábado

    Tiempo Temperatura Precipitaciones Viento Presión Humedad
    00:00 +22°C° 0 mm 1 mps 761 mmHg 95%
    01:00 +20°C° 0 mm 0 mps 760 mmHg 95%
    02:00 +20°C° 0 mm 0 mps 760 mmHg 95%
    03:00 +20°C° 0 mm 0 mps 759 mmHg 95%
    04:00 +19°C° 0 mm 0 mps 760 mmHg 95%
    05:00 +19°C° 0 mm 0 mps 760 mmHg 95%
    06:00 +19°C° 0 mm 0 mps 760 mmHg 95%
    07:00 +21°C° 0 mm 0 mps 760 mmHg 87%
    08:00 +25°C° 0 mm 1 mps 761 mmHg 79%
    09:00 +27°C° 0 mm 1 mps 761 mmHg 72%
    10:00 +29°C° 0 mm 2 mps 761 mmHg 67%
    11:00 +30°C° 0 mm 2 mps 760 mmHg 63%
    12:00 +31°C° 0 mm 2 mps 760 mmHg 59%
    13:00 +31°C° 0 mm 2 mps 759 mmHg 60%
    14:00 +31°C° 0 mm 2 mps 758 mmHg 61%
    15:00 +31°C° 0 mm 3 mps 758 mmHg 62%
    16:00 +29°C° 0 mm 2 mps 758 mmHg 70%
    17:00 +28°C° 0 mm 2 mps 758 mmHg 77%
    18:00 +26°C° 0 mm 1 mps 759 mmHg 85%
    19:00 +25°C° 0 mm 1 mps 759 mmHg 88%
    20:00 +25°C° 0 mm 1 mps 760 mmHg 91%
    21:00 +22°C° 0 mm 0 mps 761 mmHg 95%
    22:00 +22°C° 0 mm 0 mps 761 mmHg 95%
    23:00 +22°C° 0 mm 0 mps 761 mmHg 96%

    20 Enero, Domingo

    Tiempo Temperatura Precipitaciones Viento Presión Humedad
    00:00 +22°C° 0 mm 0 mps 761 mmHg 97%
    01:00 +23°C° 0.9 mm 1 mps 761 mmHg 96%
    02:00 +23°C° 0.9 mm 2 mps 761 mmHg 96%
    03:00 +22°C° 0.9 mm 3 mps 761 mmHg 95%
    04:00 +22°C° 0 mm 3 mps 762 mmHg 95%
    05:00 +21°C° 0 mm 3 mps 762 mmHg 95%
    06:00 +21°C° 0 mm 3 mps 763 mmHg 95%
    07:00 +22°C° 0 mm 3 mps 764 mmHg 88%
    08:00 +23°C° 0 mm 4 mps 764 mmHg 81%
    09:00 +23°C° 0 mm 4 mps 765 mmHg 74%
    10:00 +26°C° 0 mm 4 mps 765 mmHg 67%
    11:00 +27°C° 0 mm 4 mps 765 mmHg 59%
    12:00 +28°C° 0 mm 3 mps 764 mmHg 52%
    13:00 +28°C° 0 mm 3 mps 764 mmHg 50%
    14:00 +28°C° 0 mm 3 mps 763 mmHg 48%
    15:00 +29°C° 0 mm 3 mps 763 mmHg 45%
    16:00 +27°C° 0 mm 3 mps 763 mmHg 51%
    17:00 +25°C° 0 mm 3 mps 764 mmHg 56%
    18:00 +24°C° 0 mm 2 mps 764 mmHg 61%
    19:00 +22°C° 0 mm 3 mps 765 mmHg 61%
    20:00 +21°C° 0 mm 3 mps 765 mmHg 62%
    21:00 +21°C° 0 mm 3 mps 766 mmHg 62%
    22:00 +20°C° 0 mm 3 mps 766 mmHg 66%
    23:00 +18°C° 0 mm 3 mps 766 mmHg 71%

    21 Enero, Lunes

    Tiempo Temperatura Precipitaciones Viento Presión Humedad
    00:00 +17°C° 0 mm 3 mps 766 mmHg 75%
    01:00 +16°C° 0 mm 3 mps 766 mmHg 77%
    02:00 +16°C° 0 mm 2 mps 766 mmHg 80%
    03:00 +15°C° 0 mm 2 mps 765 mmHg 83%
    04:00 +15°C° 0 mm 2 mps 766 mmHg 85%
    05:00 +14°C° 0 mm 2 mps 766 mmHg 87%
    06:00 +14°C° 0 mm 1 mps 766 mmHg 88%
    07:00 +16°C° 0 mm 1 mps 767 mmHg 81%
    08:00 +18°C° 0 mm 2 mps 767 mmHg 73%
    09:00 +19°C° 0 mm 2 mps 767 mmHg 66%
    10:00 +21°C° 0 mm 2 mps 767 mmHg 59%
    11:00 +24°C° 0 mm 2 mps 766 mmHg 52%
    12:00 +25°C° 0 mm 1 mps 765 mmHg 45%
    13:00 +26°C° 0 mm 1 mps 765 mmHg 43%
    14:00 +26°C° 0 mm 1 mps 764 mmHg 42%
    15:00 +26°C° 0 mm 1 mps 763 mmHg 41%
    16:00 +25°C° 0 mm 1 mps 763 mmHg 48%
    17:00 +23°C° 0 mm 1 mps 763 mmHg 55%
    18:00 +21°C° 0 mm 1 mps 763 mmHg 63%
    19:00 +20°C° 0 mm 1 mps 763 mmHg 69%
    20:00 +20°C° 0 mm 1 mps 764 mmHg 75%
    21:00 +19°C° 0 mm 1 mps 764 mmHg 81%
    22:00 +19°C° 0 mm 1 mps 764 mmHg 84%
    23:00 +19°C° 0 mm 1 mps 763 mmHg 88%
    Mostrar más